This is the latest recevied weather packets stored in our database for station/object KG4LKY-5. If no packets are shown the sender has not sent any weather packets the latest 10 day(s).
| Time | Temp. | Humidity | Pressure | Rain* | Wind** | Luminosity | Snow |
|---|---|---|---|---|---|---|---|
| 1777711607 | 2.22° C | 100% | 1017.4 hPa | 0 mm | - | - | - |
| 1777711307 | 3.33° C | 100% | 1017.3 hPa | 0 mm | - | - | - |
| 1777710705 | 2.78° C | 100% | 1017.3 hPa | 0 mm | - | - | - |
| 1777710405 | 2.78° C | 100% | 1017.4 hPa | 0 mm | - | - | - |
| 1777710104 | 2.22° C | 100% | 1017.3 hPa | 0 mm | - | - | - |
| 1777709503 | 3.33° C | 100% | 1017.2 hPa | 0 mm | - | - | - |
| 1777708903 | 3.33° C | 100% | 1017.3 hPa | 0 mm | - | - | - |
| 1777708302 | 3.33° C | 100% | 1017.1 hPa | 0 mm | - | - | - |
| 1777707701 | 3.33° C | 100% | 1017 hPa | 0 mm | - | - | - |
| 1777707401 | 3.33° C | 100% | 1017 hPa | 0 mm | - | - | - |
| 1777707101 | 3.33° C | 100% | 1017.2 hPa | 0 mm | - | - | - |
| 1777706800 | 3.89° C | 100% | 1017.1 hPa | 0 mm | - | - | - |
| 1777706500 | 4.44° C | 100% | 1017.1 hPa | 0 mm | - | - | - |
| 1777706200 | 3.89° C | 100% | 1017 hPa | 0 mm | - | - | - |
| 1777705900 | 3.89° C | 100% | 1017 hPa | 0 mm | - | - | - |
| 1777705599 | 3.89° C | 100% | 1017 hPa | 0 mm | - | - | - |
| 1777705299 | 3.89° C | 100% | 1017 hPa | 0 mm | - | - | - |
| 1777704999 | 5° C | 100% | 1017.1 hPa | 0 mm | - | - | - |
| 1777704699 | 5° C | 100% | 1017.1 hPa | 0 mm | - | - | - |
| 1777704398 | 5° C | 100% | 1017 hPa | 0 mm | - | - | - |
| 1777704098 | 5° C | 100% | 1016.9 hPa | 0 mm | - | - | - |
| 1777703798 | 5.56° C | 100% | 1017 hPa | 0 mm | - | - | - |
| 1777703497 | 5° C | 97% | 1017.1 hPa | 0 mm | - | - | - |
| 1777703197 | 6.67° C | 92% | 1017 hPa | 0 mm | - | - | - |
| 1777702597 | 7.22° C | 92% | 1017.1 hPa | 0 mm | - | - | - |
* Rain since midnight (hover to see other rain measurements)
** Current wind speed in m/s (hover to see current wind gust speed)